Teterboro, NJ

12:25 AM EDT on May 29, 2017 (GMT -0400)
Teterboro

Weather History for KTEB - October, 2014

Change the Weather History Date:

Monday, October 20, 2014

  Actual Average Record
Temperature  
Mean Temperature 48 °F -  
Max Temperature 61 °F 61 °F 75 °F (2015)
Min Temperature 37 °F 42 °F 34 °F (2008)
Degree Days  
Heating Degree Days 16    
Moisture  
Dew Point 33 °F    
Average Humidity 55    
Maximum Humidity 73    
Minimum Humidity 38    
Precipitation  
Precipitation 0.00 in - - ()
Sea Level Pressure  
Sea Level Pressure 30.04 in    
Wind  
Wind Speed 5 mph (SSW)    
Max Wind Speed 13 mph    
Max Gust Speed 18 mph    
Visibility 10 miles    
Events      
Averages and records for this station are not official NWS values.
T = Trace of Precipitation, MM = Missing Value Source: NWS Daily Summary

Daily Weather History Graph

Daily Weather History Graph

Search for Another Location

Airport or City:

Trip Planner

Search our weather history database for the weather conditions in past years. The results will help you decide how hot, cold, wet, or windy it might be!

Date:

Astronomy

Oct. 20, 2014 Rise Set
Actual Time 7:13 AM EDT 6:08 PM EDT
Civil Twilight 6:45 AM EDT 6:36 PM EDT
Nautical Twilight 6:13 AM EDT 7:08 PM EDT
Astronomical Twilight 5:41 AM EDT 7:39 PM EDT
Moon 3:57 AM EDT (10/20) 4:30 PM EDT (10/20)
Length of Visible Light 11h 51m
Length of Day
10h 55m
Waning Crescent, 10% of the Moon is Illuminated
Oct 20
Waning Crescent
Oct 23
New
Oct 30
First Quarter
Nov 6
Full
Nov 14
Last Quarter

Hourly Weather History & Observations

Time (EDT) Temp. Windchill Dew Point Humidity Pressure Visibility Wind Dir Wind Speed Gust Speed Precip Events Conditions
12:51 AM 42.1 °F 39.2 °F 26.1 °F 53% 30.07 in 10.0 mi WNW 4.6 mph - N/A   Clear
1:51 AM 41.0 °F - 26.1 °F 55% 30.07 in 10.0 mi Calm Calm - N/A   Clear
2:51 AM 37.9 °F 34.4 °F 28.0 °F 68% 30.08 in 10.0 mi SSW 4.6 mph - N/A   Clear
3:51 AM 39.0 °F 34.8 °F 28.0 °F 65% 30.08 in 10.0 mi SW 5.8 mph - N/A   Clear
4:51 AM 39.9 °F 35.8 °F 28.0 °F 63% 30.09 in 10.0 mi WSW 5.8 mph - N/A   Clear
5:51 AM 39.0 °F - 28.9 °F 67% 30.09 in 10.0 mi Calm Calm - N/A   Clear
6:51 AM 39.0 °F - 28.9 °F 67% 30.09 in 10.0 mi Calm Calm - N/A   Clear
7:51 AM 39.0 °F - 30.9 °F 73% 30.11 in 10.0 mi Calm Calm - N/A   Clear
7:56 AM 39.2 °F - 30.2 °F 70% 30.11 in 10.0 mi Calm Calm - N/A   Clear
8:01 AM 39.2 °F 37.0 °F 30.2 °F 70% 30.11 in 10.0 mi SE 3.5 mph - N/A   Clear
8:51 AM 45.0 °F 41.8 °F 30.9 °F 58% 30.12 in 10.0 mi SSW 5.8 mph - N/A   Clear
9:51 AM 48.0 °F - 28.9 °F 48% 30.12 in 10.0 mi SW 6.9 mph - N/A   Clear
10:51 AM 50.0 °F - 28.9 °F 44% 30.12 in 10.0 mi SSW 10.4 mph - N/A   Clear
11:51 AM 51.1 °F - 30.9 °F 46% 30.09 in 10.0 mi South 10.4 mph - N/A   Partly Cloudy
12:51 PM 55.9 °F - 32.0 °F 40% 30.06 in 10.0 mi SSW 12.7 mph - N/A   Clear
1:51 PM 57.9 °F - 33.1 °F 39% 30.03 in 10.0 mi SSW 12.7 mph 18.4 mph N/A   Clear
2:51 PM 59.0 °F - 34.0 °F 39% 30.01 in 10.0 mi SSW 10.4 mph - N/A   Clear
3:51 PM 60.1 °F - 34.0 °F 38% 29.98 in 10.0 mi SSW 12.7 mph - N/A   Clear
4:51 PM 60.1 °F - 36.0 °F 41% 29.96 in 10.0 mi South 9.2 mph - N/A   Clear
5:51 PM 60.1 °F - 36.0 °F 41% 29.97 in 10.0 mi SSW 10.4 mph - N/A   Clear
6:51 PM 55.9 °F - 37.9 °F 51% 29.96 in 10.0 mi South 4.6 mph - N/A   Clear
7:51 PM 55.9 °F - 37.0 °F 49% 29.97 in 10.0 mi South 3.5 mph - N/A   Clear
8:51 PM 53.1 °F - 37.9 °F 57% 29.97 in 10.0 mi Calm Calm - N/A   Clear
9:51 PM 53.1 °F - 39.0 °F 59% 29.97 in 10.0 mi Calm Calm - N/A   Clear
10:51 PM 54.0 °F - 41.0 °F 62% 29.96 in 10.0 mi South 3.5 mph - N/A   Clear
11:51 PM 54.0 °F - 44.1 °F 69% 29.96 in 10.0 mi SSW 4.6 mph - N/A   Partly Cloudy